Skip Page Navigation
NASA JPL Caltech
NASA Logo - Jet Propulsion Laboratory + View the NASA Portal
+ Center for Near-Earth Object Studies
JPL Home Earth Solar System Stars & Galaxies Technology
JPL Solar System Dynamics
BODIES ORBITS EPHEMERIDES TOOLS PHYSICAL DATA DISCOVERY FAQ SITE MAP
JPL Small-Body Database Browser
Search: [ help ]  
26006 (2001 FC112)
Classification: Main-belt Asteroid          SPK-ID: 2026006
Ephemeris | Orbit Diagram | Orbital Elements | Mission Design | Physical Parameters | Discovery Circumstances | Close-Approach Data ]

[ show orbit diagram ]
Orbital Elements at Epoch 2459000.5 (2020-May-31.0) TDB
Reference: JPL 24 (heliocentric ecliptic J2000)
 Element Value Uncertainty (1-sigma)   Units 
e .1604970096128577 3.6214e-08  
a 2.199290770181753 7.9173e-09 au
q 1.846311178298423 7.9627e-08 au
i 4.149987766258542 3.2487e-06 deg
node 85.89067002736745 6.1134e-05 deg
peri 226.4430032500165 6.2337e-05 deg
M 205.1589747041537 1.2326e-05 deg
tp 2459512.896249092915
(2021-Oct-25.39624909)
4.1163e-05 TDB
period 1191.303463155237
3.26
6.433e-06
1.761e-08
d
yr
n .3021900054302864 1.6318e-09 deg/d
Q 2.552270362065083 9.1881e-09 au
  Orbit Determination Parameters
   # obs. used (total)      1247  
   data-arc span      8532 days (23.36 yr)  
   first obs. used      1996-12-10  
   last obs. used      2020-04-20  
   planetary ephem.      DE431  
   SB-pert. ephem.      SB431-N16  
   condition code      0  
   norm. resid. RMS      .44564  
   source      ORB  
   producer      Otto Matic  
   solution date      2020-May-20 05:59:15  

Additional Information
 Earth MOID = .834952 au 
 Jupiter MOID = 2.69932 au 
 T_jup = 3.646 
[ show covariance matrix ]

Ephemeris | Orbit Diagram | Orbital Elements | Mission Design | Physical Parameters | Discovery Circumstances | Close-Approach Data ]

Physical Parameter Table
Parameter Symbol Value Units Sigma Reference Notes
absolute magnitude H 16.2   n/a MPO452533  

26006 (2001 FC112)          Discovered 2001-Mar-18 by Spacewatch at Kitt Peak
Reference: 20010606/Numbers.arcLast Updated: 2004-04-19

[ show close-approach data ]
Alternate Designations
 2001 FC112 = 1996 XB15 
Ephemeris | Orbit Diagram | Orbital Elements | Mission Design | Physical Parameters | Discovery Circumstances | Close-Approach Data ]
ABOUT SSD CREDITS/AWARDS PRIVACY/COPYRIGHT GLOSSARY LINKS
FirstGov 2021-Jan-28 13:20 UT
(server date/time)  
NASA Home Page
Site Manager:   Ryan S. Park
Webmaster  Alan B. Chamberlin